Sarasota, FL

10:51 AM EDT on April 19, 2018 (GMT -0400)
Sarasota-bradenton

Weather History for KSRQ - October, 2011

Change the Weather History Date:

Thursday, October 20, 2011

  Actual Average Record
Temperature  
Mean Temperature 65 °F 75 °F  
Max Temperature 73 °F 84 °F 91 °F (2005)
Min Temperature 57 °F 67 °F 46 °F (1996)
Degree Days  
Heating Degree Days 0 0  
Month to date heating degree days 0 0  
Since 1 July heating degree days 0 0  
Cooling Degree Days 0 11  
Month to date cooling degree days 234 255  
Year to date cooling degree days 3272 3044  
Growing Degree Days 14 (Base 50)    
Moisture  
Dew Point 52 °F    
Average Humidity 61    
Maximum Humidity 86    
Minimum Humidity 47    
Precipitation  
Precipitation 0.00 in 0.09 in 3.53 in (1952)
Month to date precipitation 1.41 2.26  
Year to date precipitation 38.98 47.69  
Sea Level Pressure  
Sea Level Pressure 30.00 in    
Wind  
Wind Speed 9 mph (NNE)    
Max Wind Speed 22 mph    
Max Gust Speed 40 mph    
Visibility 10 miles    
Events      
T = Trace of Precipitation, MM = Missing Value Source: NWS Daily Summary

Daily Weather History Graph

Daily Weather History Graph

Search for Another Location

Airport or City:

Astronomy

Oct. 20, 2011 Rise Set
Actual Time 7:32 AM EDT 6:56 PM EDT
Civil Twilight 7:09 AM EDT 7:20 PM EDT
Nautical Twilight 6:41 AM EDT 7:47 PM EDT
Astronomical Twilight 6:14 AM EDT 8:14 PM EDT
Moon 12:54 AM EDT (10/20) 2:30 PM EDT (10/20)
Length of Visible Light 12h 11m
Length of Day
11h 23m
Last Quarter, 44% of the Moon is Illuminated
Oct 20
Last Quarter
Oct 26
New
Nov 2
First Quarter
Nov 10
Full
Nov 18
Last Quarter

Hourly Weather History & Observations

Time (EDT) Temp. Dew Point Humidity Pressure Visibility Wind Dir Wind Speed Gust Speed Precip Events Conditions
12:53 AM 71.1 °F 50.0 °F 47% 29.90 in 10.0 mi WNW 18.4 mph 26.5 mph N/A   Scattered Clouds
1:53 AM 72.0 °F 54.0 °F 53% 29.89 in 10.0 mi WNW 13.8 mph - N/A   Overcast
2:53 AM 72.0 °F 53.1 °F 51% 29.89 in 10.0 mi NW 19.6 mph 29.9 mph N/A   Overcast
3:53 AM 71.1 °F 53.1 °F 53% 29.89 in 10.0 mi NW 18.4 mph 25.3 mph N/A   Scattered Clouds
4:53 AM 71.1 °F 53.1 °F 53% 29.90 in 10.0 mi NW 13.8 mph - N/A   Overcast
5:53 AM 66.9 °F 55.0 °F 66% 29.94 in 10.0 mi North 12.7 mph 23.0 mph N/A   Mostly Cloudy
6:53 AM 64.9 °F 53.1 °F 65% 29.96 in 10.0 mi North 11.5 mph 20.7 mph N/A   Mostly Cloudy
7:53 AM 66.0 °F 53.1 °F 63% 29.99 in 10.0 mi North 10.4 mph 18.4 mph N/A   Overcast
8:53 AM 64.0 °F 53.1 °F 67% 30.02 in 10.0 mi ENE 11.5 mph - N/A   Mostly Cloudy
9:53 AM 63.0 °F 50.0 °F 63% 30.04 in 10.0 mi ENE 8.1 mph - N/A   Overcast
10:53 AM 64.0 °F 51.1 °F 63% 30.06 in 10.0 mi East 6.9 mph - N/A   Overcast
11:53 AM 63.0 °F 50.0 °F 63% 30.07 in 10.0 mi NE 9.2 mph - N/A   Overcast
12:53 PM 66.9 °F 51.1 °F 57% 30.06 in 10.0 mi NNE 8.1 mph - N/A   Overcast
1:53 PM 70.0 °F 51.1 °F 51% 30.04 in 10.0 mi NNE 9.2 mph - N/A   Mostly Cloudy
2:53 PM 71.1 °F 52.0 °F 51% 30.02 in 10.0 mi North 11.5 mph - N/A   Scattered Clouds
3:53 PM 71.1 °F 52.0 °F 51% 30.01 in 10.0 mi North 10.4 mph - N/A   Mostly Cloudy
4:53 PM 68.0 °F 51.1 °F 55% 30.01 in 10.0 mi North 5.8 mph - N/A   Mostly Cloudy
5:53 PM 69.1 °F 51.1 °F 53% 30.02 in 10.0 mi NNW 5.8 mph - N/A   Scattered Clouds
6:53 PM 64.9 °F 52.0 °F 63% 30.04 in 10.0 mi North 4.6 mph - N/A   Clear
7:53 PM 64.0 °F 52.0 °F 65% 30.05 in 10.0 mi Calm Calm - N/A   Partly Cloudy
8:53 PM 63.0 °F 53.1 °F 70% 30.06 in 10.0 mi NE 3.5 mph - N/A   Partly Cloudy
9:53 PM 60.1 °F 53.1 °F 78% 30.08 in 10.0 mi East 3.5 mph - N/A   Partly Cloudy
10:53 PM 57.9 °F 53.1 °F 84% 30.09 in 10.0 mi East 3.5 mph - N/A   Clear
11:53 PM 57.9 °F 53.1 °F 84% 30.09 in 10.0 mi East 4.6 mph - N/A   Partly Cloudy